Location: Katp?dip?lem
(16.6502°N, 80.5643°E)
Time: 01:18:19
(UTC+00:00)

Cosmos 2369 Rocket - Pass Details

Date: 14 April 2024
Orbit: 830 x 850 km, 71.0° (Epoch: 23 May)

Event Time Altitude Azimuth Distance (km) Brightness Sun altitude
Rises 00:00:11 0° 353° (N) 3,366 5.4 -6.2°
Reaches altitude 10° 00:02:44 10° 360° (N) 2,430 4.8 -5.6°
Maximum altitude 00:08:01 44° 72° (ENE) 1,127 3.6 -4.4°
Drops below altitude 10° 00:13:18 10° 143° (SE) 2,427 5.0 -3.1°
Sets 00:15:50 0° 150° (SSE) 3,360 5.6 -2.5°
